Volver al catálogo

FENGYUN 1C DEB

ActivoSSO
NORAD 36184·DEBRIS·🇨🇳 China

Lanzado May 10, 1999 desde Taiyuan Satellite Launch Center

Loading…

Próximos Pases (próximas 24 horas)

TLE

EnvejeciendoSource: Space-Track

Época: Sep 9, 2026, 17:35 UTC

1 36184U 99025DTH 26252.73319167  .00001825  00000-0  97421-3 0  9993
2 36184  98.5561 234.8559 0126732 288.2954  70.4465 14.10446093663321

Sigue FENGYUN 1C DEB en tiempo real con AllMySat

Download on the App Store